Regional Weather Roundup
Issued by NWS Memphis, TN

Home | Current Version | Previous Version | Text Only | Print | Product List | Glossary On
Versions: 1 2 3 4 5 6 7 8 9 10 11 12 13 14 15 16 17 18 19 20 21 22 23 24 25 26 27 28 29 30 31 32 33 34 35 36 37 38 39 40 41 42 43 44 45 46 47 48 49 50
000
ASUS44 KMEG 030410
RWRMEG
MEMPHIS CWA HOURLY WEATHER ROUNDUP
NATIONAL WEATHER SERVICE MEMPHIS TN
1000 PM CST FRI DEC 02 2016

...WEST TENNESSEE...

CITY           SKY/WX    TMP DP  RH WIND       PRES   REMARKS
MEMPHIS INTL   CLOUDY    50  36  58 NE3       30.29S
NWS MEMPHIS      N/A     47 N/A N/A MISG        N/A
JACKSON        MOCLDY    41  35  79 CALM      30.31R
BOLIVAR        CLEAR     41  36  81 CALM      30.29S
LEXINGTON      CLEAR     37  34  87 N3        30.30R
DYERSBURG      CLOUDY   N/A N/A N/A E6        30.30F
UNION CITY     CLEAR     37  32  81 CALM      30.31S
PARIS          CLEAR     37  27  65 CALM      30.32R
HUNTINGDON     MOCLDY    45  32  61 CALM      30.32R


...EASTERN ARKANSAS...

CITY           SKY/WX    TMP DP  RH WIND       PRES   REMARKS
JONESBORO      PTCLDY    46  37  71 NE6       30.31S
WEST MEMPHIS   CLOUDY    47  38  71 NE3       30.29S
BATESVILLE     CLOUDY    46  36  66 CALM      30.31R
NEWPORT        CLOUDY    46  41  82 E6        30.30
WALNUT RIDGE   CLOUDY    45  36  70 NE5       30.31R
BLYTHEVILLE    CLOUDY    43  37  79 NE5       30.31S
SEARCY         CLOUDY    50  41  71 NE6       30.30R
STUTTGART      CLOUDY    52  37  58 E5        30.28F
PINE BLUFF     CLOUDY    47  42  83 E5        30.26S
MONTICELLO     CLOUDY    49  40  71 E3        30.26S


...NORTH MISSISSIPPI...

CITY           SKY/WX    TMP DP  RH WIND       PRES   REMARKS
TUPELO         CLEAR     44  38  79 SW3       30.29R
OXFORD         CLEAR     41  36  81 CALM      30.31R
BATESVILLE     CLOUDY    42  39  90 CALM      30.30R
TUNICA         LGT RAIN  46  37  71 NE5       30.30R
CLARKSDALE     CLEAR     50  39  66 CALM      30.28F
CORINTH        CLEAR     41  36  81 W3        30.29R
GREENWOOD      MOCLDY    45  34  65 CALM      30.28S
COLUMBUS       PTCLDY    42  36  79 CALM      30.28R
STARKVILLE     CLOUDY    43  37  81 CALM      30.30S
GOLDEN TRIANGL CLOUDY    45  34  65 CALM      30.24F


...SOUTHEAST MISSOURI...

CITY           SKY/WX    TMP DP  RH WIND       PRES   REMARKS
KENNETT        CLOUDY    46  36  66 NE8       30.30S
WEST PLAINS    MOCLDY    41  27  57 NE3       30.31R


...NORTHWEST ALABAMA...

CITY           SKY/WX    TMP DP  RH WIND       PRES   REMARKS
MUSCLE SHOALS  CLEAR     41  36  82 CALM      30.29F


...MIDDLE TENNESSEE...

CITY           SKY/WX    TMP DP  RH WIND       PRES   REMARKS
NASHVILLE      PTCLDY    43  29  57 NE8       30.32S
CLARKSVILLE    CLEAR     38  29  70 N5        30.33S WCI  34
COLUMBIA       CLEAR     39  39 100 CALM      30.28S


...WESTERN KENTUCKY...

CITY           SKY/WX    TMP DP  RH WIND       PRES   REMARKS
PADUCAH        CLEAR     33  28  81 CALM      30.34R
FORT CAMPBELL  CLEAR     36  30  80 NE5       30.33R WCI  32


...CENTRAL ARKANSAS...

CITY           SKY/WX    TMP DP  RH WIND       PRES   REMARKS
LITTLE ROCK    CLOUDY    49  40  71 NE3       30.27S


SKY/WX REPORTED AS FAIR MEANS FEW OR NO CLOUDS BELOW
12 THOUSAND FEET.





USA.gov is the U.S. government's official web portal to all federal, state and local government web resources and services.